SCOUT B DEB, 37862

Orbit data source: Space-Track

SCOUT B DEB, 37862 is space debris in LEO originally from a launch on Tue, 10 Aug 1965 UTC launched from the Wallops Island (WLPIS). Debris objects in space refer to the collection of defunct objects orbiting the Earth. Examples of debris include non-operational satellites, rocket bodies, and fragments generated from explosions, collisions, or faulty payload assembly.

Loading next visibility...
Identifier
37862, 1965-063AE
Orbit
LEO
Country
Flag of USUS
Related business
Manufacturer
Unknown
Mission
Spacecraft
Bus & Motor
Unknown
Mass
Unknown
Launch date (UTC)
1965-08-10 (60 years ago)
Launch vehicle
Unknown
Launch site
Wallops Island (WLPIS)
Object type
Payload
Rocket body
Debris
Shape & HBR
Unknown shape, 0.1 m
Radar Cross Section
Small (<0.1 m²)

Expand to show TLE details & history
Last TLE update: 13 hours ago

TLE from 13 hours ago
0 SCOUT B DEB
1 37862U 65063AE  26036.86483791  .00042475  00000-0  85715-1 0  9998
2 37862  69.1338 329.1072 0764787  56.6745 310.5147 12.55592433733951
Epoch: 2026-02-05T20:45Z
TLE epoch observation values (Epoch: 2026-02-05T20:45:21.995Z)
Latitude
-0.00011°
Longitude
-118.24543°
Altitude
1,083.215 km
Speed
7.477 km/s
True Right ascension
21h 56m 25s
True Declination
0° 00' 00"
Sunlit
Object was in daylight at epoch
Visualization orbit readout
Latitude
Unknown
Longitude
Unknown
Altitude
Unknown
Speed
Unknown
Apparent Right ascension
Unknown
Apparent Declination
Unknown
Sunlit
N/A
Visualization observer readout
Local Sidereal Time
11:50:37
Azimuth
Unknown
Elevation
Unknown
Doppler factor
Unknown
Orbital elements
Apogee altitude
2,037.313 km
Perigee altitude
841.558 km
Semi-major axis
7,817.572 km
Eccentricity
0.07648
Inclination
69.1338°
RAAN
329.1072°
Arg. of periapsis
56.6745°
True anomaly
303.43042°
Mean anomaly
310.5147°
Eccentric anomaly
307.01588°
Mean motion
3.14004 °/min
Orbital period
114.65 mins
BSTAR
0.085715
Loading maneuver chart data...
Computing Atmospheric mass density...
Loading historical data...
Loading historical data...
Loading historical data...
Loading historical data...
Loading historical data...
Loading historical data...
Loading historical data...

Documentation

Showing up to 5 results
|